Location: Dead Woman Crossing
(43.5369°N, 106.3228°W)
Time: 07:59:32
(UTC+00:00)

NANOSAT C BR1 - Pass Details

Date: 30 June 2022
Orbit: 584 x 599 km, 98.0° (Epoch: 09 August)

Event Time Altitude Azimuth Distance (km) Brightness Sun altitude
Rises 09:05:12 0° 15° (NNE) 2,847 ? -18.2°
Reaches altitude 10° 09:07:24 10° 18° (NNE) 1,943 ? -18.0°
Maximum altitude 09:11:36 68° 101° (E) 646 ? -17.6°
Enters shadow 09:13:32 31° 177° (S) 1,064 ? -17.4°
